History for TLPC

Vigie, St. Lucia

Daily Weekly Monthly
Daily Summary for Saturday, July 23, 2016
  Actual: Average: Record:
Temperature
Mean Temperature: 78 °F / 26 °C - :  
Max Temperature: 86 °F / 30 °C 85 °F / 29 °C 89 °F / 31 °C (2001)
Min Temperature: 71 °F / 22 °C 79 °F / 26 °C 75 °F / 23 °C (2014)
Cooling Degree Days 14    
Growing Degree Days 28 (Base 50)    
Moisture
Dew Point 76 °F / 24 °C    
Average Humidity 82    
Maximum Humidity 94    
Minimum Humidity 72    
Precipitation
Precipitation 0.12 in / 3.0 cm - - ()
Sea Level Pressure
Sea Level Pressure 29.96 in / 1014.41 hPa   
Wind
Wind Speed 6 mph / 10 km/h ()  
Max Wind Speed 12 mph / 18 km/h   
Max Gust Speed -   
Visibility 7.3 miles / 11.9 kilometers   
Events Rain   
Averages and records for this station are not official NWS values.
Key: T is trace of precipitation, MM is missing value
Source: Averaged Metar Reports
Seasonal Weather Averages

Graphs

Observations

History Graphs Observations

Obs Go Here...

Features

Weather Apps

WunderRadio

Weather Underground Apps
Check out our wide variety of mobile and setup applications.

Weather Underground Applications

Top of Page

© Copyright 2016
The Weather Company, LLC
Time(AST)TemperatureDew PointHumidity Sea Level Pressure Visibility Wind DirectionWind SpeedGust SpeedPrecipitationEvents Conditions
6:00 AM 77.0 °F / 25.0 °C 75.2 °F / 24.0 °C 94% 29.95 in / 1014 hPa 4.3 miles / 7.0 kilometers South 3.5 mph / 5.6 km/h - N/A   Mostly Cloudy
6:18 AM 77.0 °F / 25.0 °C 75.2 °F / 24.0 °C 94% 29.95 in / 1014 hPa 1.6 miles / 2.5 kilometers South 3.5 mph / 5.6 km/h - N/A Rain Heavy Rain Showers
6:36 AM 77.0 °F / 25.0 °C 75.2 °F / 24.0 °C 94% 29.95 in / 1014 hPa 6.2 miles / 10.0 kilometers East 9.2 mph / 14.8 km/h - N/A   Mostly Cloudy
7:00 AM 78.8 °F / 26.0 °C 75.2 °F / 24.0 °C 89% 29.95 in / 1014 hPa 5.6 miles / 9.0 kilometers East 5.8 mph / 9.3 km/h - N/A   Scattered Clouds
8:00 AM 81 °F / 27 °C 76 °F / 24 °C 80% 29.97 in / 1015 hPa 11 miles / 18 kilometers ESE 6.9 mph / 11.1 km/h - - Rain Light Rain Showers
8:00 AM 80.6 °F / 27.0 °C 75.2 °F / 24.0 °C 84% 29.95 in / 1014 hPa 6.2 miles / 10.0 kilometers ESE 6.9 mph / 11.1 km/h - N/A Rain Light Rain Showers
9:00 AM 84.2 °F / 29.0 °C 77.0 °F / 25.0 °C 79% 29.98 in / 1015 hPa 6.2 miles / 10.0 kilometers East 10.4 mph / 16.7 km/h - N/A   Scattered Clouds
10:00 AM 86.0 °F / 30.0 °C 77.0 °F / 25.0 °C 74% 29.98 in / 1015 hPa 6.2 miles / 10.0 kilometers ESE 11.5 mph / 18.5 km/h - N/A   Scattered Clouds
11:00 AM 79 °F / 26 °C 74 °F / 23 °C 79% 30.01 in / 1016 hPa 4 miles / 7 kilometers South 6.9 mph / 11.1 km/h - - Rain Light Rain Showers
11:00 AM 78.8 °F / 26.0 °C 73.4 °F / 23.0 °C 83% 30.01 in / 1016 hPa 4.3 miles / 7.0 kilometers South 6.9 mph / 11.1 km/h - N/A Rain Rain Showers
12:00 PM 82.4 °F / 28.0 °C 75.2 °F / 24.0 °C 79% 29.98 in / 1015 hPa 6.2 miles / 10.0 kilometers ENE 5.8 mph / 9.3 km/h - N/A   Mostly Cloudy
1:00 PM 84.2 °F / 29.0 °C 77.0 °F / 25.0 °C 79% 29.98 in / 1015 hPa 6.2 miles / 10.0 kilometers ESE 10.4 mph / 16.7 km/h - N/A   Scattered Clouds
2:00 PM 85 °F / 30 °C 77 °F / 25 °C 72% 29.96 in / 1014 hPa 17 miles / 28 kilometers SE 10.4 mph / 16.7 km/h - -   Haze
2:00 PM 86.0 °F / 30.0 °C 77.0 °F / 25.0 °C 74% 29.95 in / 1014 hPa 6.2 miles / 10.0 kilometers SE 10.4 mph / 16.7 km/h - N/A   Scattered Clouds
3:00 PM 84.2 °F / 29.0 °C 75.2 °F / 24.0 °C 74% 29.95 in / 1014 hPa 6.2 miles / 10.0 kilometers ESE 11.5 mph / 18.5 km/h - N/A   Mostly Cloudy
4:00 PM 84.2 °F / 29.0 °C 75.2 °F / 24.0 °C 74% 29.92 in / 1013 hPa 6.2 miles / 10.0 kilometers East 9.2 mph / 14.8 km/h - N/A   Mostly Cloudy
5:00 PM 81 °F / 27 °C 76 °F / 25 °C 82% 29.94 in / 1014 hPa 17 miles / 28 kilometers ENE 3.5 mph / 5.6 km/h - - Rain Light Rain Showers
5:00 PM 80.6 °F / 27.0 °C 77.0 °F / 25.0 °C 89% 29.92 in / 1013 hPa 6.2 miles / 10.0 kilometers ENE 3.5 mph / 5.6 km/h - N/A   Scattered Clouds
6:00 PM 80.6 °F / 27.0 °C 73.4 °F / 23.0 °C 79% 29.95 in / 1014 hPa 6.2 miles / 10.0 kilometers East 4.6 mph / 7.4 km/h - N/A   Mostly Cloudy
7:00 PM 80.6 °F / 27.0 °C 75.2 °F / 24.0 °C 84% 29.95 in / 1014 hPa 6.2 miles / 10.0 kilometers East 5.8 mph / 9.3 km/h - N/A   Mostly Cloudy
8:00 PM 81 °F / 27 °C 75 °F / 24 °C 78% 29.98 in / 1015 hPa 16 miles / 26 kilometers East 6.9 mph / 11.1 km/h - - Rain Light Rain Showers
8:00 PM 80.6 °F / 27.0 °C 75.2 °F / 24.0 °C 84% 29.98 in / 1015 hPa 6.2 miles / 10.0 kilometers East 6.9 mph / 11.1 km/h - N/A Rain Light Rain Showers